Mobile, AL

3:29 PM CST on February 10, 2016 (GMT -0600)
Mobile Regional

Weather History for KMOB - June, 2013

Change the Weather History Date:

Wednesday, June 19, 2013

  Actual Average Record
Temperature  
Mean Temperature 79 °F 80 °F  
Max Temperature 87 °F 90 °F 101 °F (1953)
Min Temperature 70 °F 71 °F 62 °F (1995)
Cooling Degree Days 14 15  
Month to date cooling degree days 297 268  
Year to date cooling degree days 661 713  
Since 1 June cooling degree days 297 268  
Growing Degree Days 28 (Base 50)    
Moisture  
Dew Point 70 °F    
Average Humidity 77    
Maximum Humidity 97    
Minimum Humidity 57    
Precipitation  
Precipitation T in 0.21 in 2.88 in (1920)
Month to date precipitation 3.40 3.65  
Year to date precipitation 31.85 30.49  
Sea Level Pressure  
Sea Level Pressure 30.00 in    
Wind  
Wind Speed 2 mph (NW)    
Max Wind Speed 9 mph    
Max Gust Speed 12 mph    
Visibility 10 miles    
Events Rain    
T = Trace of Precipitation, MM = Missing Value Source: NWS Daily Summary

Daily Weather History Graph

Daily Weather History Graph

Search for Another Location

Airport or City:

Trip Planner

Search our weather history database for the weather conditions in past years. The results will help you decide how hot, cold, wet, or windy it might be!

Date:

Astronomy

Jun. 19, 2013 Rise Set
Actual Time 5:50 AM CDT 7:58 PM CDT
Civil Twilight 5:22 AM CDT 8:26 PM CDT
Nautical Twilight 4:48 AM CDT 9:00 PM CDT
Astronomical Twilight 4:12 AM CDT 9:36 PM CDT
Moon 4:01 PM CDT (6/19) 2:21 AM CDT (6/19)
Length of Visible Light 15h 03m
Length of Day
14h 08m
Waxing Gibbous, 80% of the Moon is Illuminated
Jun 19
Waxing Gibbous
Jun 23
Full
Jun 29
Last Quarter
Jul 8
New
Jul 15
First Quarter

Hourly Weather History & Observations

Time (CDT) Temp. Heat Index Dew Point Humidity Pressure Visibility Wind Dir Wind Speed Gust Speed Precip Events Conditions
12:26 AM 71.6 °F - 69.8 °F 94% 30.00 in 10.0 mi Calm Calm - 0.00 in   Mostly Cloudy
12:56 AM 72.0 °F - 69.1 °F 91% 29.98 in 10.0 mi Calm Calm - 0.00 in   Clear
1:56 AM 72.0 °F - 69.1 °F 91% 29.97 in 10.0 mi SSE 3.5 mph - N/A   Partly Cloudy
2:56 AM 71.1 °F - 69.1 °F 93% 29.96 in 9.0 mi Calm Calm - N/A   Partly Cloudy
3:56 AM 72.0 °F - 69.1 °F 91% 29.95 in 10.0 mi Calm Calm - N/A   Clear
4:56 AM 71.1 °F - 68.0 °F 90% 29.96 in 10.0 mi Calm Calm - N/A   Clear
5:56 AM 70.0 °F - 68.0 °F 93% 29.97 in 7.0 mi Calm Calm - N/A   Mostly Cloudy
6:56 AM 73.0 °F - 70.0 °F 90% 29.99 in 10.0 mi Calm Calm - N/A   Scattered Clouds
7:56 AM 75.9 °F - 72.0 °F 87% 30.01 in 10.0 mi NW 3.5 mph - N/A   Mostly Cloudy
8:56 AM 79.0 °F - 73.0 °F 82% 30.02 in 10.0 mi Calm Calm - N/A   Mostly Cloudy
9:27 AM 80.6 °F 85.4 °F 73.4 °F 79% 30.03 in 10.0 mi NW 3.5 mph - N/A   Mostly Cloudy
9:56 AM 80.1 °F 83.8 °F 72.0 °F 76% 30.03 in 10.0 mi WNW 3.5 mph - N/A   Mostly Cloudy
10:56 AM 80.1 °F 83.8 °F 72.0 °F 76% 30.04 in 10.0 mi NW 5.8 mph - N/A   Overcast
11:56 AM 82.9 °F 87.0 °F 70.0 °F 65% 30.04 in 10.0 mi NNW 5.8 mph - N/A   Mostly Cloudy
12:56 PM 84.0 °F 88.4 °F 70.0 °F 63% 30.03 in 10.0 mi North 6.9 mph - N/A   Mostly Cloudy
1:03 PM 84.2 °F 88.4 °F 69.8 °F 62% 30.03 in 10.0 mi North 6.9 mph - N/A   Mostly Cloudy
1:29 PM 86.0 °F 90.4 °F 69.8 °F 58% 30.03 in 10.0 mi Variable 5.8 mph - N/A   Mostly Cloudy
1:56 PM 86.0 °F 90.7 °F 70.0 °F 59% 30.01 in 10.0 mi North 8.1 mph - N/A   Mostly Cloudy
2:56 PM 87.1 °F 92.8 °F 71.1 °F 59% 30.01 in 10.0 mi NNW 5.8 mph - N/A   Mostly Cloudy
3:56 PM 82.9 °F 86.5 °F 69.1 °F 63% 29.99 in 10.0 mi Calm Calm - N/A   Mostly Cloudy
4:56 PM 82.9 °F 86.5 °F 69.1 °F 63% 29.98 in 10.0 mi WNW 3.5 mph - 0.00 in Rain Light Rain
5:56 PM 84.0 °F 87.8 °F 69.1 °F 61% 29.99 in 10.0 mi NW 5.8 mph - 0.00 in   Mostly Cloudy
6:56 PM 82.9 °F 86.5 °F 69.1 °F 63% 30.00 in 10.0 mi West 4.6 mph - N/A   Scattered Clouds
7:56 PM 79.0 °F - 72.0 °F 79% 30.01 in 10.0 mi Calm Calm - N/A   Scattered Clouds
8:56 PM 78.1 °F - 71.1 °F 79% 30.01 in 10.0 mi Calm Calm - N/A   Scattered Clouds
9:56 PM 73.9 °F - 71.1 °F 91% 30.02 in 10.0 mi Calm Calm - N/A   Scattered Clouds
10:56 PM 75.9 °F - 71.1 °F 85% 30.04 in 10.0 mi Calm Calm - N/A   Partly Cloudy
11:56 PM 75.0 °F - 70.0 °F 84% 30.04 in 10.0 mi Calm Calm - N/A   Clear